Regional Weather Roundup
Issued by NWS

Home | Current Version | Previous Version | Graphics & Text | Print | Product List | Glossary On
Versions: 1 2 3 4 5 6 7 8 9 10 11 12 13 14 15 16 17 18 19 20 21 22 23 24 25 26 27 28 29 30 31 32 33 34 35 36 37 38 39 40 41 42 43 44 45 46 47 48 49 50
000
ASUS43 KDMX 271007
RWRIA

WEATHER ROUNDUP FOR IOWA
NATIONAL WEATHER SERVICE DES MOINES IA
500 AM CDT WED AUG 27 2014

NOTE: "FAIR" INDICATES FEW OR NO CLOUDS BELOW 12,000 FEET WITH NO
SIGNIFICANT WEATHER AND/OR OBSTRUCTIONS TO VISIBILITY.

* - THESE STATIONS ARE NOT NWS STATIONS...THUS NOT UNDER NWS
QUALITY CONTROL.  THEY ALSO DO NOT REPORT WEATHER SUCH
AS PRECIPITATION OR FOG.

IAZ001>003-012>014-020>022-031>034-043>046-271100-
   NORTHWEST IOWA

CITY           SKY/WX    TMP DP  RH WIND       PRES   REMARKS
CARROLL *      CLOUDY    63  63 100 CALM      30.13F
CHEROKEE *     MOCLDY    59  59 100 NE3       30.16S
DENISON *      CLOUDY    64  64 100 CALM      30.12S
LE MARS *      PTCLDY    59  59 100 N5        30.15F
ORANGE CITY *  CLEAR     61  55  82 E6        30.16F
SHELDON *      MOCLDY    55  55 100 E7        30.15F
SIOUX CITY     CLOUDY    65  60  84 E7        30.13F
SPENCER        CLOUDY    59  56  89 NE5       30.18S
STORM LAKE *   MOCLDY    61  61 100 E8        30.16S
$$

IAZ055>058-069>071-079>083-090>094-271100-
   SOUTHWEST IOWA

CITY           SKY/WX    TMP DP  RH WIND       PRES   REMARKS
ATLANTIC *     CLOUDY    66  64  94 NE3       30.10F
AUDUBON *      LGT RAIN  68  64  88 CALM      30.16R
CLARINDA *     CLOUDY    68  68 100 S6        30.12R
COUNCIL BLFS * PTCLDY    66  66 100 NE7       30.07F
CRESTON *      LGT RAIN  66  66 100 E3        30.12S
HARLAN  *      DRIZZLE   66  66 100 NE5       30.15F
LAMONI         MOCLDY    68  65  90 NE6       30.10S
RED OAK *      MOCLDY    68  66  94 E3        30.09F
SHENANDOAH *   MOCLDY    68  68 100 SE5       30.08F
$$

IAZ047>049-059>061-072>074-084-271100-
   CENTRAL IOWA

CITY           SKY/WX    TMP DP  RH WIND       PRES   REMARKS
AMES           PTCLDY    64  62  93 NE5       30.13F
ANKENY *       CLEAR     64  63  94 MISG      30.13R
CHARITON *     CLOUDY    66  64  94 NE6       30.10F
DES MOINES     MOCLDY    69  62  78 NE7       30.11F
GRINNELL*      MOCLDY    64  63  94 NE7       30.14S
KNOXVILLE *    CLEAR     66  63  88 CALM      30.10S
MARSHALLTOWN   CLOUDY    65  62  90 NE7       30.15R
PELLA *        PTCLDY    66  63  88 CALM      30.13S
PERRY *        CLOUDY    66  64  94 CALM      30.13F
$$

IAZ004>006-015-016-023>025-035-036-271100-
   NORTH CENTRAL IOWA

CITY           SKY/WX    TMP DP  RH WIND       PRES   REMARKS
ALGONA *       MOCLDY    57  57 100 N5        30.17S
CLARION *      CLOUDY    61  59  94 E7        30.16S
ESTHERVILLE    PTCLDY    56  55  97 N3        30.17F
FORT DODGE *   CLOUDY    63  59  88 E7        30.16F
MASON CITY     PTCLDY    56  55  97 CALM      30.19S
FOREST CITY *  CLEAR     57  57 100 CALM      30.18S
IOWA FALLS *   CLOUDY    63  59  88 CALM      30.17S
$$

IAZ007>011-017>019-026>030-037>042-050>054-066-271100-
   NORTHEAST IOWA

CITY           SKY/WX    TMP DP  RH WIND       PRES   REMARKS
CEDAR RAPIDS   LGT RAIN  66  63  90 NE8       30.13F
CHARLES CITY * CLEAR     59  57  94 NE5       30.17F
CLINTON *      CLOUDY    66  63  88 N5        30.16R
DECORAH *      PTCLDY    59  57  94 CALM      30.18R
DUBUQUE        PTCLDY    63  60  90 NE7       30.17R
MONTICELLO *   MOCLDY    64  63  94 CALM      30.16R
OELWEIN *      CLEAR     59  59 100 E5        30.17S
WATERLOO       CLEAR     61  58  90 CALM      30.15R
$$

IAZ064-065-067-068-078-271100-
   EAST CENTRAL IOWA

CITY           SKY/WX    TMP DP  RH WIND       PRES   REMARKS
DAVENPORT      CLOUDY    67  64  90 NE8       30.13S
IOWA CITY      MOCLDY    68  63  84 NE5       30.13F
MT. PLEASANT * MOCLDY    68  66  94 N5        30.13R
MUSCATINE *    PTCLDY    68  64  88 N6        30.13R
QUAD CITIES    MOCLDY    70  64  81 NE6       30.12R
$$

IAZ062-063-075>077-085>089-095>099-271100-
   SOUTHEAST IOWA

CITY           SKY/WX    TMP DP  RH WIND       PRES   REMARKS
BURLINGTON     CLEAR     70  67  90 NE5       30.10F
FAIRFIELD *    PTCLDY    66  63  88 NE6       30.12S
FORT MADISON * CLEAR     70  68  94 CALM      30.11S
KEOKUK *       CLOUDY    70  68  94 NE6       30.09S
OSKALOOSA *      N/A     64  63  94 E5        30.12S
CENTERVILLE *  PTCLDY    66  66 100 NE6       30.12S
OTTUMWA        CLEAR     65  63  93 E6        30.11F
WASHINGTON *   CLOUDY    66  66 100 E5        30.13S
$$

ABBREVIATIONS USED IN REMARKS
   TC - TEMPERATURES IN CELSIUS
  WCI - WIND CHILL INDEX
   HX - HEAT INDEX
  VSB - VISIBILITY
$$



USA.gov is the U.S. government's official web portal to all federal, state and local government web resources and services.